Location: Newark
(51.3000°N, 178.2000°W)
Time: 01:27:01
(UTC+00:00)

ISS - Pass Details

Date: 17 May 2021
Orbit: 417 x 422 km, 51.6° (Epoch: 15 June)

Event Time Altitude Azimuth Distance (km) Brightness Sun altitude
Rises 10:50:15 0° 267° (W) 2,367 0.2 -18.1°
Reaches altitude 10° 10:52:20 10° 268° (W) 1,504 -0.8 -18.2°
Maximum altitude 10:55:43 83° 355° (N) 429 -3.8 -18.3°
Drops below altitude 10° 10:59:07 10° 86° (E) 1,508 -1.0 -18.4°
Enters shadow 10:59:40 - 86° (E) 1,736 -0.7 -18.4°
